SCP
0 0 0 0 0 0 0 0 0 0 0 0 0 0 0 0 0 0 0 0 0 0 0 0 0 0 0 0 0 0 0 0 0 0 0 0 0 0 0 0 0 0 0 0
0 0 0 0 0 0 0 0 0 0 0 0 0 0 0 0 0 0 0 0 0 0 0 0 0 0 0 0 0 0 0 0 0 0 0 0 0 0 0 0 0 0 0 0
0 0 0 0 0 0 0 0 0 0 0 0 0 0 0 0 0 0 0 0 0 0 0 0 0 0 0 0 0 0 0 0 0 0 0 0 0 0 0 0 0 0 0 0
0 0 0 0 0 0 0 0 0 0 0 0 0 0 0 0 0 0 0 0 0 0 0 0 0 0 0 0 0 0 0 0 0 0 0 0 0 0 0 0 0 0 0 0
0 0 0 0 0 0 0 0 0 0 0 0 0 0 0 0 0 0 0 0 0 0 0 0 0 0 0 0 0 0 0 0 0 0 0 0 0 0 0 0 0 0 0 0
0 0 0 0 0 0 0 0 0 0 0 0 0 0 0 0 0 0 0 0 0 0 0 0 0 0 0 0 0 0 0 0 0 0 0 0 0 0 0 0 0 0 0 0
0 0 0 0 0 0 0 0 0 0 0 0 0 0 0 0 0 0 0 0 0 0 0 0 0 0 0 0 0 0 0 0 0 0 0 0 0 0 0 0 0 0 0 0
0 0 0 0 0 0 0 0 0 0 0 0 0 0 0 0 0 0 0 0 0 0 0 0 0 0 0 0 0 0 0 0 0 0 0 0 0 0 0 0 0 0 0 0
0 0 0 0 0 0 0 0 0 0 0 0 0 0 0 0 0 0 0 0 0 0 0 0 0 0 0 0 0 0 0 0 0 0 0 0 0 0 0 0 0 0 0 0
0 0 0 0 0 0 0 0 0 0 0 0 0 0 0 0 0 0 0 0 0 0 0 0 0 0 0 0 0 0 0 0 0 0 0 0 0 0 0 0 0 0 0 0
0 0 0 0 0 0 0 0 0 0 0 0 0 0 0 0 0 0 0 0 0 0 0 0 0 0 0 0 0 0 0 0 0 0 0 0 0 0 0 0 0 0 0 0
0 0 0 0 0 0 0 0 0 0 0 0 0 0 0 0 0 0 0 0 0 0 0 0 0 0 0 0 0 0 0 0 0 0 0 0 0 0 0 0 0 0 0 0
0 0 0 0 0 0 0 0 0 0 0 0 0 0 0 0 0 0 0 0 0 0 0 0 0 0 0 0 0 0 0 0 0 0 0 0 0 0 0 0 0 0 0 0
0 0 0 0 0 0 0 0 0 0 0 0 0 0 0 0 0 0 0 0 0 0 0 0 0 0 0 0 0 0 0 0 0 0 0 0 0 0 0 0 0 0 0 0
0 0 0 0 0 0 0 0 0 0 0 0 0 0 0 0 0 0 0 0 0 0 0 0 0 0 0 0 0 0 0 0 0 0 0 0 0 0 0 0 0 0 0 0
0 0 0 0 0 0 0 0 0 0 0 0 0 0 0 0 0 0 0 0 0 0 0 0 0 0 0 0 0 0 0 0 0 0 0 0 0 0 0 0 0 0 0 0
0 0 0 0 0 0 0 0 0 0 0 0 0 0 0 0 0 0 0 0 0 0 0 0 0 0 0 0 0 0 0 0 0 0 0 0 0 0 0 0 0 0 0 0
0 0 0 0 0 0 0 0 0 0 0 0 0 0 0 0 0 0 0 0 0 0 0 0 0 0 0 0 0 0 0 0 0 0 0 0 0 0 0 0 0 0 0 0
0 0 0 0 0 0 0 0 0 0 0 0 0 0 0 0 0 0 0 0 0 0 0 0 0 0 0 0 0 0 0 0 0 0 0 0 0 0 0 0 0 0 0 0
0 0 0 0 0 0 0 0 0 0 0 0 0 0 0 0 0 0 0 0 0 0 0 0 0 0 0 0 0 0 0 0 0 0 0 0 0 0 0 0 0 0 0 0
0 0 0 0 0 0 0 0 0 0 0 0 0 0 0 0 0 0 0 0 0 0 0 0 0 0 0 0 0 0 0 0 0 0 0 0 0 0 0 0 0 0 0 0
0 0 0 0 0 0 0 0 0 0 0 0 0 0 0 0 0 0 0 0 0 0 0 0 0 0 0 0 0 0 0 0 0 0 0 0 0 0 0 0 0 0 0 0
0 0 0 0 0 0 0 0 0 0 0 0 0 0 0 0 0 0 0 0 0 0 0 0 0 0 0 0 0 0 0 0 0 0 0 0 0 0 0 0 0 0 0 0
0 0 0 0 0 0 0 0 0 0 0 0 0 0 0 0 0 0 0 0 0 0 0 0 0 0 0 0 0 0 0 0 0 0 0 0 0 0 0 0 0 0 0 0
0 0 0 0 0 0 0 0 0 0 0 0 0 0 0 0 0 0 0 0 0 0 0 0 0 0 0 0 0 0 0 0 0 0 0 0 0 0 0 0 0 0 0 0
0 0 0 0 0 0 0 0 0 0 0 0 0 0 0 0 0 0 0 0 0 0 0 0 0 0 0 0 0 0 0 0 0 0 0 0 0 0 0 0 0 0 0 0
0 0 0 0 0 0 0 0 0 0 0 0 0 0 0 0 0 0 0 0 0 0 0 0 0 0 0 0 0 0 0 0 0 0 0 0 0 0 0 0 0 0 0 0
Wind_Speed
6 5 6 8 9 10 13 13 14 14 14 14 12 10 8 8 8 9 10 11 11 11 10 10 10 9 9 8 8 7 6 6 5 4 3 2 2 2 2 2 2 3 3 3
9 6 8 11 12 13 15 15 16 17 17 14 12 9 9 10 10 11 12 13 12 12 12 12 11 11 10 9 8 8 7 6 5 4 4 3 3 2 2 2 2 2 3 2
10 6 8 12 11 12 11 12 12 14 13 10 9 9 10 10 11 12 13 13 13 13 13 12 12 11 11 10 9 8 8 7 6 6 5 4 3 3 3 3 2 2 2 2
9 9 12 5 1 5 10 12 13 14 13 11 10 9 8 9 11 12 12 12 12 12 12 12 11 11 10 10 9 9 8 7 7 6 5 5 4 4 4 3 2 3 3 3
7 10 11 8 5 5 7 9 8 11 12 9 6 6 8 9 11 11 11 11 11 11 12 12 12 12 11 11 10 9 8 8 7 7 6 5 5 5 4 3 3 3 3 3
8 10 9 5 1 2 5 7 3 4 7 5 4 6 4 1 6 9 8 8 9 10 11 12 12 12 12 11 11 10 9 8 7 6 6 5 5 4 3 3 4 4 3 3
11 11 9 5 2 5 7 4 7 6 6 4 6 7 5 2 4 6 8 9 9 11 11 11 12 12 13 12 11 9 8 7 7 6 6 5 4 3 3 3 3 4 4 3
8 10 7 2 4 4 6 8 8 8 8 7 9 8 6 4 4 5 8 9 10 11 10 10 12 13 13 11 9 8 8 7 7 6 5 4 4 3 3 3 4 4 4 3
7 5 3 1 4 6 8 9 10 10 10 9 9 9 7 6 5 6 8 9 10 11 11 11 12 12 12 11 10 9 9 8 7 6 5 4 3 3 2 2 3 2 2 2
9 10 8 8 8 8 9 10 11 12 12 10 10 10 8 7 6 7 9 10 10 12 12 12 12 11 11 10 10 10 9 8 7 7 5 4 2 1 1 1 1 1 1 1
14 15 14 10 9 10 12 13 13 13 12 11 11 11 10 8 8 8 8 9 11 12 13 13 12 11 10 10 11 11 10 8 7 6 5 4 4 3 1 3 3 2 1 1
14 13 14 15 15 14 15 15 15 15 14 12 11 12 11 10 8 8 9 10 11 12 12 13 13 12 11 11 11 11 9 9 7 6 5 5 6 6 9 7 9 9 7 5
15 16 16 17 17 15 15 16 16 15 15 14 12 11 11 10 9 9 10 12 13 14 13 13 13 13 12 12 11 11 10 9 7 6 6 6 6 6 6 7 8 10 9 8
12 13 15 14 14 15 15 16 15 14 14 13 12 11 10 10 9 10 12 12 12 12 13 13 13 13 12 12 11 11 10 8 7 6 6 6 5 5 5 5 5 5 8 9
11 12 12 13 14 14 14 14 15 14 14 14 12 11 10 10 10 10 10 9 10 12 13 14 14 13 12 12 12 12 9 8 7 6 6 6 5 5 4 5 4 5 5 7
12 11 11 12 13 14 14 15 15 15 15 14 13 12 11 11 10 9 8 10 12 14 14 14 14 13 13 13 12 10 8 9 8 7 7 7 6 6 5 5 5 4 4 4
11 12 13 13 14 15 15 14 15 15 15 15 14 13 11 10 9 8 9 11 12 12 13 14 13 13 14 14 13 9 9 10 11 8 7 7 6 6 6 5 5 5 4 4
9 10 12 13 14 15 16 15 15 15 15 16 15 12 10 10 10 9 9 9 10 10 11 12 12 14 14 14 11 9 9 10 9 8 7 7 7 6 6 6 6 6 6 5
10 11 12 13 13 14 14 15 15 15 15 14 13 12 11 10 10 8 8 10 12 12 12 12 14 14 14 13 11 9 10 10 9 9 8 8 7 7 6 6 6 6 5 5
11 12 13 13 14 13 14 14 15 14 13 13 13 12 10 9 8 8 9 10 9 8 11 13 15 13 14 14 12 10 11 11 10 9 9 8 8 7 7 6 6 6 5 4
12 13 13 13 14 14 14 14 14 14 13 12 11 11 10 8 7 7 9 8 8 9 12 15 12 11 11 12 13 10 10 10 10 9 9 8 8 8 7 7 6 5 5 4
12 12 13 13 13 13 13 13 13 13 13 11 11 9 8 6 6 7 8 5 7 11 10 10 10 12 13 14 10 10 10 10 9 8 8 8 8 7 7 7 6 5 4 4
12 12 13 13 13 13 13 12 12 11 11 11 10 8 7 5 4 5 5 4 7 12 10 9 12 18 19 12 9 10 10 10 9 8 8 8 7 7 7 7 6 5 5 4
13 13 13 12 12 12 13 12 11 9 9 9 8 7 6 4 3 3 3 6 10 11 8 11 17 20 16 9 9 9 9 9 8 8 8 7 7 7 6 6 6 5 5 5
13 13 13 13 12 10 11 11 11 9 8 6 7 6 4 3 3 2 3 7 11 11 8 14 20 18 12 8 9 9 8 8 8 8 7 7 7 6 6 6 5 5 4 4
12 11 10 11 10 9 8 8 8 7 6 6 5 5 4 2 2 1 2 6 10 10 8 9 12 12 9 9 9 8 8 9 9 8 8 7 8 7 6 6 7 5 4 4
11 10 9 9 8 7 7 7 7 7 6 6 5 4 3 2 1 2 3 5 7 7 7 8 9 9 8 8 8 8 8 8 8 8 7 7 7 6 6 7 6 5 4 4
Wind_Direction
279 285 268 261 248 225 234 255 268 276 276 278 280 272 255 239 222 210 206 203 200 198 196 193 194 195 195 193 190 190 194 205 214 219 220 238 252 270 291 309 317 333 338 345
264 259 257 259 256 246 245 254 261 270 275 276 277 270 251 233 219 214 211 207 203 201 197 196 195 194 192 192 190 192 198 204 204 217 218 231 245 257 274 283 297 313 317 331
276 276 265 260 256 245 243 239 248 261 273 281 270 259 248 237 224 219 215 207 202 200 198 198 196 193 191 191 186 193 200 201 201 207 214 226 231 239 251 257 270 284 293 303
277 274 263 289 337 260 257 260 253 260 272 275 275 278 265 245 232 223 215 207 202 200 195 195 191 188 187 184 188 195 199 200 200 206 212 216 224 235 249 260 261 269 284 291
262 267 273 278 259 228 246 272 274 264 269 274 285 273 250 230 227 225 214 206 199 197 191 189 185 183 184 186 191 196 199 202 198 201 208 215 221 231 242 253 257 257 266 276
246 261 268 282 69 178 252 264 356 309 296 287 252 257 275 229 217 216 206 195 187 184 186 185 181 180 187 190 192 196 197 200 197 198 206 217 229 240 239 241 252 257 256 264
246 256 265 296 130 183 243 337 12 347 329 294 255 280 331 301 233 209 193 184 179 178 182 183 176 179 190 192 195 191 187 190 192 195 206 218 230 235 238 240 247 251 254 251
241 248 257 109 166 225 329 350 340 333 329 307 285 297 305 271 230 202 188 180 179 179 179 176 176 183 191 192 186 177 177 184 188 191 196 199 209 225 234 237 241 245 250 254
254 269 9 16 276 314 326 318 326 326 322 309 292 284 284 268 237 210 197 185 183 182 176 175 181 189 192 183 175 174 177 181 182 181 181 190 198 205 218 231 253 265 267 276
265 269 289 297 293 298 307 307 313 316 313 303 289 284 276 262 240 216 203 191 185 182 182 182 183 190 192 175 174 178 180 180 180 180 175 168 165 188 203 246 256 269 289 300
274 283 293 286 301 316 317 311 309 311 307 299 290 281 274 261 242 223 206 195 191 192 190 186 181 184 183 176 178 183 181 178 179 174 165 152 128 68 56 54 21 353 354 346
274 293 295 297 309 315 313 310 310 309 305 299 287 280 274 263 247 228 214 200 197 197 194 189 182 180 178 178 183 185 182 178 174 168 161 155 140 111 65 68 69 60 43 27
283 294 292 294 301 308 307 307 307 303 299 297 291 280 271 263 249 231 219 209 204 199 194 188 182 180 175 176 183 187 182 174 169 168 164 165 161 154 138 111 89 74 66 62
294 297 290 297 302 308 309 309 306 301 298 294 291 285 272 262 248 230 221 215 208 199 191 186 182 179 174 174 178 182 177 166 165 165 167 168 167 166 161 158 144 116 88 76
302 299 295 300 303 307 311 311 310 306 306 302 296 285 272 259 246 236 225 211 201 195 189 184 181 176 170 172 174 173 168 163 162 158 161 161 160 157 153 148 138 131 126 111
310 308 308 308 309 312 314 314 310 308 307 304 298 288 275 263 255 241 219 201 196 195 190 185 181 172 168 169 167 165 159 150 153 156 157 157 157 156 153 150 146 140 131 121
318 319 320 318 317 316 314 312 309 307 306 303 298 293 283 267 251 234 218 208 206 199 190 185 177 166 168 168 164 159 153 152 157 159 159 158 157 156 153 152 146 135 116 84
316 314 314 315 315 315 313 311 309 307 304 302 299 292 279 260 245 231 216 204 199 192 187 180 168 164 166 168 164 158 155 157 163 158 155 156 155 154 152 148 143 137 130 129
322 318 315 314 313 311 309 309 310 308 306 303 298 288 275 261 249 233 208 196 192 188 182 170 160 164 165 162 157 157 157 157 157 155 152 147 155 153 153 151 148 146 144 145
314 313 313 313 314 313 310 310 310 309 308 304 298 289 278 265 247 223 204 202 200 188 169 163 164 165 161 158 159 159 158 158 157 155 154 159 159 156 155 154 154 153 154 154
316 317 317 316 315 314 313 314 313 312 312 308 300 291 283 269 243 217 204 203 193 172 163 162 164 160 158 155 161 158 158 159 159 159 160 161 161 160 160 160 161 163 162 161
313 315 315 315 314 314 316 316 314 314 314 313 307 299 290 272 241 221 213 203 170 161 162 165 162 154 153 154 159 157 159 160 161 161 163 164 165 166 167 167 168 167 168 170
307 308 310 312 312 311 312 315 318 319 317 314 309 303 290 276 248 222 209 181 165 169 169 165 156 152 154 157 157 159 160 162 163 164 165 167 168 169 169 170 170 171 176 177
302 304 306 307 307 307 311 318 321 320 320 317 312 307 297 280 257 238 214 162 163 165 166 153 153 156 158 158 158 161 162 163 164 166 166 167 168 169 169 170 172 176 181 186
295 297 300 303 304 305 308 313 315 317 319 319 318 315 305 290 273 239 188 166 161 162 156 157 159 159 161 158 161 162 163 164 164 163 166 167 168 171 172 174 179 183 188 195
292 292 291 291 293 296 299 304 306 309 312 315 315 313 309 304 270 217 174 165 162 161 156 157 161 163 163 160 161 162 161 160 163 168 170 171 174 175 177 181 186 191 196 201
287 286 285 286 288 291 294 297 300 303 308 309 308 307 303 293 259 194 171 162 159 161 160 160 162 164 162 161 163 166 167 168 170 171 172 175 177 180 183 187 190 192 194 201